Regional Weather Roundup
Issued by NWS Bismarck, ND

Home | Current Version | Previous Version | Text Only | Print | Product List | Glossary On
Versions: 1 2 3 4 5 6 7 8 9 10 11 12 13 14 15 16 17 18 19 20 21 22 23 24 25 26 27 28 29 30 31 32 33 34 35 36 37 38 39 40 41 42 43 44 45 46 47 48 49 50
000
ASUS43 KBIS 280820
RWRBIS

NWR BROADCAST TEXT
NATIONAL WEATHER SERVICE BISMARCK ND
200 AM CST SAT FEB 28 2015

NOTE: "FAIR" INDICATES FEW OR NO CLOUDS BELOW 12,000 FEET WITH NO
SIGNIFICANT WEATHER AND/OR OBSTRUCTIONS TO VISIBILITY.


CITY           SKY/WX    TMP DP  RH WIND       PRES   REMARKS
WILLISTON      CLOUDY     9   3  77 N7        30.06R WCI  -2
MINOT          CLOUDY    13   2  61 SW12      30.06S WCI  -1
MINOT AFB      CLOUDY    13   5  71 SW14      30.06F WCI  -2
BISMARCK       MOCLDY     9   0  67 SE12      30.13S WCI  -6
DICKINSON      PTCLDY     9   2  73 S8        29.98S WCI  -3
GARRISON         N/A     11   3  70 S10       30.07S WCI  -3
HETTINGER ARPT PTCLDY     6   0  76 CALM      30.01S
JAMESTOWN      MOCLDY     5  -1  76 S13       30.19F WCI -12
BEACH          CLOUDY    14   9  79 W12       30.01R WCI   0
CARRINGTON     PTSUNNY   10   1  67 MISG      30.15F
CROSBY         CLOUDY     0  -2  92 NW12      30.09R WCI -18
HARVEY         FAIR      10   0  61 S15G22    30.11F WCI  -6
HAZEN          CLOUDY    14   1  57 S9        30.07F WCI   2
LINTON         FAIR       7   0  72 SE13      30.14S WCI  -9
MANDAN         CLOUDY    10   1  67 SW3       30.11S
OAKES            N/A      1  -2  85 S8        30.26F WCI -12
RUGBY          FAIR       5   0  78 SE7       30.12F WCI  -7
TIOGA          FAIR       7   5  92 SW5       30.05R WCI  -2
WATFORD CITY   PTSUNNY    9   3  78 CALM      30.01S
$$

CITY           SKY/WX    TMP DP  RH WIND       PRES   REMARKS
GRAND FORKS    PTCLDY     3  -5  69 S13       30.29F WCI -14
GRAND FORKS AF PTCLDY     4  -4  70 S9        30.28S WCI -11
DEVILS LAKE    CLOUDY     3  -4  72 S9        30.16F WCI -11
FARGO          PTCLDY     7  -2  66 S15       30.34F WCI -10
CANDO          PTSUNNY    0  -4  85 E6        30.17S WCI -12
CAVALIER       FAIR       1  -2  85 S10       30.25F WCI -14
GWINNER        SUNNY     10   1  67 S12       30.29F WCI  -4
ROLLA          CLOUDY     1  -2  85 S8        30.12F WCI -12
WALHALLA         N/A      9   0  66 SW9       30.23F WCI  -5
$$

CITY           SKY/WX    TMP DP  RH WIND       PRES   REMARKS
ABERDEEN       CLEAR      9   0  67 S15       30.28F WCI  -8
MOBRIDGE       PTCLDY    11   1  64 SE13      30.12F WCI  -4
BUFFALO          N/A      8   3  80 SW3       29.92R
RAPID CITY     CLEAR      9   5  84 SE3       30.00F
GLASGOW        MOCLDY     6   0  76 NW7       30.12R WCI  -6
SIDNEY         CLOUDY    12   3  67 NW20      30.08R WCI  -6
WOLF POINT     CLEAR     10  -2  58 W3        30.13R
GLENDIVE       CLEAR     10   5  79 NW16      30.04R WCI  -7
MILES CITY     CLEAR      7   3  84 NW7       30.08R WCI  -5
BAKER          MOCLDY    11   7  84 W10       30.01R WCI  -3
$$

CITY           SKY/WX    TMP DP  RH WIND       PRES   REMARKS
BILLINGS       CLOUDY    16   7  67 S5        30.05S WCI   9
GREAT FALLS    LGT SNOW  16  12  86 NW3       30.10S FOG
REGINA         PTCLDY   -13 -17  84 NW2       30.11F
ESTEVAN        PTCLDY    -6  -9  84 NW10      30.07S WCI -23
$$



USA.gov is the U.S. government's official web portal to all federal, state and local government web resources and services.